#timestamp,LO_Frequency,Hit 
1503374415.1,286046999.5,N
1503374416.0,286046999.5,N
1503374435.8,286046998.8,N
1503374455.6,286046998.1,N
1503374475.5,286046999.1,N
1503374495.3,286047002.3,N
1503374515.1,286046999.8,N
1503374535.9,286046996.9,N
1503374555.7,286046997.5,N
1503374575.5,286046996.5,N
1503374595.4,286046998.9,N
1503374615.2,286046997.2,N
1503374635.0,286046995.2,N
1503374635.9,286046995.2,N
1503374655.8,286046995.8,N
1503374675.6,286046995.3,N
1503374695.4,286046999.5,N
1503374715.3,286046996.8,N
1503374735.1,286046997.8,N
1503374736.0,286046997.8,N
1503374755.8,286046996.4,N
1503374775.7,286046992.3,P
1503374795.5,286047002.0,N
1503374815.3,286047002.4,N
1503374835.2,286047000.6,N
1503374855.9,286046998.2,N
1503374875.7,286046999.0,N
1503374895.5,286046999.7,N
1503374915.4,286046998.7,N
1503374935.2,286046999.8,N
1503374955.0,286047000.9,N
1503374955.9,286047000.9,N
1503374975.8,286047005.1,N
1503374995.6,286047001.8,N
1503375015.4,286047001.8,N
1503375035.3,286047002.5,N
1503375055.1,286047004.8,N
1503375056.0,286047004.8,N
1503375075.8,286047005.5,N
1503375095.7,286047004.2,N
1503375115.5,286047003.0,N
1503375135.3,286047005.8,N
1503375155.2,286047001.8,N
1503375175.9,286047002.0,N
1503375195.7,286047000.5,N
1503375215.5,286047001.2,N
1503375235.4,286047000.4,N
1503375255.2,286046998.3,N
1503375275.0,286047000.5,N
1503375275.9,286047000.5,N
1503375295.8,286047003.2,N
1503375315.6,286047001.6,N
1503375335.4,286047001.4,N
1503375355.3,286047001.4,N
1503375375.1,286047001.3,N
1503375376.0,286047001.3,N
1503375395.8,286047003.5,N
1503375415.7,286047004.0,N
1503375435.5,286047005.7,N
1503375455.3,286047005.2,N
1503375475.2,286047006.5,P
1503375495.9,286047003.6,N
1503375515.7,286047000.0,N
1503375535.6,286047004.3,N
1503375555.4,286047002.9,N
1503375575.2,286047006.3,P
1503375595.1,286047005.2,P
1503375596.0,286047005.2,P
1503375615.8,286047004.4,P
1503375635.6,286046995.4,P
1503375655.5,286046995.8,N
1503375675.3,286046994.6,N
1503375695.1,286046996.0,N
1503375715.9,286046996.3,N
1503375735.7,286046996.5,N
1503375755.5,286046998.3,N
1503375775.4,286046997.1,N
1503375795.2,286046998.0,N
1503375815.0,286046996.3,N
1503375815.9,286046996.3,N
1503375835.8,286046995.1,N
1503375855.6,286046997.0,N
1503375875.4,286047000.4,N
1503375895.2,286047001.8,N
1503375915.1,286046999.9,N
1503375916.0,286046999.9,N
1503375935.8,286046999.4,N
1503375955.6,286046997.1,N
1503375975.5,286046995.4,N
1503375995.3,286046996.0,N
1503376015.1,286046997.8,N
1503376035.9,286047002.8,N
1503376055.7,286047005.6,N
1503376075.5,286047001.6,N
1503376095.4,286047003.2,N
1503376115.2,286047008.0,N
1503376135.0,286047008.2,N
1503376135.9,286047008.2,N
1503376155.8,286047005.5,N
1503376175.6,286047004.3,N
1503376195.4,286047005.6,N
1503376215.2,286047004.1,N
1503376235.1,286047005.9,N
1503376236.0,286047005.9,N
1503376255.8,286047005.8,N
1503376275.6,286047005.5,N
1503376295.5,286047008.8,N
1503376315.3,286047007.0,N
1503376335.1,286047010.7,N
1503376355.9,286047006.6,N
1503376375.7,286047006.9,N
1503376395.5,286047006.3,N
1503376415.4,286047008.5,N
1503376435.2,286047007.1,N
1503376455.0,286047005.0,N
1503376455.9,286047005.0,N
1503376475.8,286047004.7,N
1503376495.6,286047010.1,N
1503376515.4,286047013.9,P
1503376535.3,286047005.9,N
1503376555.1,286047009.1,N
1503376556.0,286047009.1,N
1503376575.8,286047010.7,P
1503376595.7,286047000.3,N
1503376615.5,286046998.6,N
1503376635.3,286046996.8,N
1503376655.2,286046998.8,N
1503376675.9,286046999.1,N
1503376695.7,286047002.1,N
1503376715.6,286047001.4,N
1503376735.4,286047004.0,N
1503376755.2,286047002.4,N
1503376775.0,286046997.0,N
1503376776.0,286046997.0,N
1503376795.8,286047002.2,N
1503376815.6,286046998.6,N
1503376835.4,286046998.3,N
1503376855.3,286046995.9,N
1503376875.1,286046996.6,N
1503376895.8,286047000.7,N
1503376915.7,286047001.0,N
1503376935.5,286047000.1,N
1503376955.3,286047002.8,N
1503376975.2,286047001.0,N
1503376995.9,286046997.9,N
1503377015.7,286047000.6,N
1503377035.6,286047001.7,N
1503377055.4,286047004.3,N
1503377075.2,286047001.0,N
1503377095.0,286047000.5,N
1503377095.9,286047000.5,N
1503377115.8,286047000.8,N
1503377135.6,286046999.9,N
1503377155.4,286047003.3,N
1503377175.3,286047001.6,N
1503377195.1,286046999.1,N
1503377215.8,286047005.5,N
1503377235.7,286047005.7,N
1503377255.5,286047000.2,N
1503377275.3,286047001.0,N
1503377295.2,286047003.0,N
1503377315.9,286047002.2,N
1503377335.7,286047000.0,N
1503377355.5,286047001.5,N
1503377375.4,286047000.2,N
1503377395.2,286047000.5,N
1503377415.0,286046998.8,N
1503377415.9,286046998.8,N
1503377435.8,286046999.2,N
1503377455.6,286046999.4,N
1503377475.4,286047000.1,N
1503377495.3,286047000.1,N
1503377515.1,286046996.5,N
1503377535.8,286046997.1,N
1503377555.7,286046998.3,N
1503377575.5,286047002.8,N
1503377595.3,286047002.4,N
1503377615.2,286046996.9,N
1503377635.9,286046998.5,N
1503377655.7,286047001.1,N
1503377675.6,286047004.3,N
1503377695.4,286046999.2,N
1503377715.2,286046999.2,N
1503377735.0,286047001.2,N
1503377735.9,286047001.2,N
1503377755.8,286046998.6,N
1503377775.6,286046998.1,N
1503377795.4,286047004.2,N
1503377815.3,286047000.8,N
1503377835.1,286046997.5,N
1503377855.8,286046997.4,N
1503377875.7,286047001.2,N
1503377895.5,286047002.6,N
1503377915.3,286047002.8,N
1503377935.2,286047003.9,N
1503377955.1,286047001.6,N
1503377956.0,286047001.6,N
1503377975.8,286046998.5,N
1503377995.7,286046997.3,N
